| time (UTC) | temp F | wind direction | speed MPH | gust MPH | rain 1hr in | rain 24hr in | rain mn in | humidity % | barometer mb |
| 20260508080004 | 58 | 266 | 0.0 | 1.0 | 0.00 | 0.00 | 0.00 | 28 | 1035.6 |
| 20260508074503 | 59 | 218 | 0.0 | 1.0 | 0.00 | 0.00 | 0.00 | 27 | 1035.6 |
| 20260508073004 | 60 | 221 | 0.0 | 3.0 | 0.00 | 0.00 | 0.00 | 25 | 1035.7 |
| 20260508071503 | 61 | 221 | 0.0 | 2.0 | 0.00 | 0.00 | 0.00 | 25 | 1035.7 |
| 20260508070004 | 62 | 215 | 1.0 | 5.0 | 0.00 | 0.00 | 0.00 | 23 | 1035.7 |
| 20260508064504 | 63 | 229 | 1.0 | 5.0 | 0.00 | 0.00 | 0.00 | 22 | 1035.6 |
| 20260508063004 | 62 | 308 | 0.0 | 1.0 | 0.00 | 0.00 | 0.00 | 24 | 1035.6 |
| 20260508061503 | 63 | 350 | 1.0 | 4.0 | 0.00 | 0.00 | 0.00 | 22 | 1035.5 |
| 20260508060004 | 63 | 220 | 0.0 | 4.0 | 0.00 | 0.00 | 0.00 | 22 | 1035.4 |
| 20260508054504 | 64 | 227 | 1.0 | 3.0 | 0.00 | 0.00 | 0.00 | 22 | 1035.3 |
| 20260508053004 | 64 | 223 | 1.0 | 3.0 | 0.00 | 0.00 | 0.00 | 23 | 1035.5 |
| 20260508051524 | 64 | 218 | 1.0 | 4.0 | 0.00 | 0.00 | 0.00 | 23 | 1035.6 |
| 20260508050003 | 65 | 221 | 1.0 | 3.0 | 0.00 | 0.00 | 0.00 | 23 | 1035.5 |
| 20260508044524 | 65 | 226 | 1.0 | 3.0 | 0.00 | 0.00 | 0.00 | 23 | 1035.4 |
| 20260508043003 | 66 | 229 | 1.0 | 4.0 | 0.00 | 0.00 | 0.00 | 23 | 1035.4 |
| 20260508041505 | 66 | 240 | 1.0 | 3.0 | 0.00 | 0.00 | 0.00 | 23 | 1035.2 |
| 20260508040006 | 67 | 231 | 2.0 | 6.0 | 0.00 | 0.00 | 0.00 | 22 | 1035.0 |
| 20260508034506 | 68 | 241 | 1.0 | 4.0 | 0.00 | 0.00 | 0.00 | 22 | 1034.8 |
| 20260508033006 | 68 | 245 | 1.0 | 5.0 | 0.00 | 0.00 | 0.00 | 22 | 1034.5 |
| 20260508031506 | 68 | 249 | 1.0 | 4.0 | 0.00 | 0.00 | 0.00 | 22 | 1034.4 |
| 20260508030005 | 69 | 250 | 1.0 | 6.0 | 0.00 | 0.00 | 0.00 | 21 | 1034.2 |
| 20260508024505 | 70 | 255 | 1.0 | 4.0 | 0.00 | 0.00 | 0.00 | 20 | 1033.9 |
| 20260508023026 | 71 | 258 | 2.0 | 6.0 | 0.00 | 0.00 | 0.00 | 20 | 1033.8 |
| 20260508021505 | 73 | 263 | 2.0 | 5.0 | 0.00 | 0.00 | 0.00 | 19 | 1033.6 |
| 20260508020005 | 75 | 247 | 1.0 | 4.0 | 0.00 | 0.00 | 0.00 | 18 | 1033.4 |
| 20260508014527 | 76 | 277 | 1.0 | 4.0 | 0.00 | 0.00 | 0.00 | 17 | 1033.2 |
| 20260508013006 | 78 | 274 | 1.0 | 5.0 | 0.00 | 0.00 | 0.00 | 16 | 1033.2 |
| 20260508011505 | 80 | 309 | 1.0 | 3.0 | 0.00 | 0.00 | 0.00 | 12 | 1033.2 |
| 20260508010005 | 80 | 348 | 2.0 | 3.0 | 0.00 | 0.00 | 0.00 | 10 | 1033.1 |
| 20260508004506 | 82 | 302 | 1.0 | 6.0 | 0.00 | 0.00 | 0.00 | 10 | 1033.0 |
| 20260508003006 | 83 | 274 | 0.0 | 3.0 | 0.00 | 0.00 | 0.00 | 10 | 1033.1 |
| 20260508001506 | 80 | 21 | 1.0 | 4.0 | 0.00 | 0.00 | 0.00 | 11 | 1033.2 |
| 20260508000005 | 82 | 288 | 1.0 | 4.0 | 0.00 | 0.00 | 0.00 | 10 | 1033.4 |
| 20260507234505 | 82 | 262 | 1.0 | 4.0 | 0.00 | 0.00 | 0.00 | 10 | 1033.4 |
| 20260507233005 | 81 | 301 | 2.0 | 7.0 | 0.00 | 0.00 | 0.00 | 10 | 1033.5 |
| 20260507231505 | 82 | 348 | 1.0 | 6.0 | 0.00 | 0.00 | 0.00 | 11 | 1033.6 |
| 20260507230005 | 81 | 285 | 1.0 | 4.0 | 0.00 | 0.00 | 0.00 | 11 | 1033.6 |
| 20260507224505 | 79 | 13 | 2.0 | 6.0 | 0.00 | 0.00 | 0.00 | 13 | 1033.8 |
| 20260507223006 | 79 | 88 | 3.0 | 6.0 | 0.00 | 0.00 | 0.00 | 11 | 1034.0 |
| 20260507221526 | 79 | 56 | 3.0 | 9.0 | 0.00 | 0.00 | 0.00 | 10 | 1034.1 |
| 20260507220005 | 80 | 6 | 3.0 | 7.0 | 0.00 | 0.00 | 0.00 | 9 | 1034.4 |
| 20260507214526 | 81 | 257 | 3.0 | 7.0 | 0.00 | 0.00 | 0.00 | 11 | 1034.4 |
| 20260507213005 | 81 | 284 | 2.0 | 6.0 | 0.00 | 0.00 | 0.00 | 11 | 1034.8 |
| 20260507211505 | 81 | 321 | 2.0 | 7.0 | 0.00 | 0.00 | 0.00 | 11 | 1034.9 |
| 20260507210005 | 79 | 92 | 1.0 | 3.0 | 0.00 | 0.00 | 0.00 | 11 | 1035.2 |
| 20260507204505 | 78 | 93 | 3.0 | 7.0 | 0.00 | 0.00 | 0.00 | 13 | 1035.4 |
| 20260507203005 | 78 | 23 | 2.0 | 6.0 | 0.00 | 0.00 | 0.00 | 14 | 1035.7 |
| 20260507201505 | 78 | 19 | 1.0 | 4.0 | 0.00 | 0.00 | 0.00 | 15 | 1035.8 |
| 20260507200006 | 76 | 108 | 4.0 | 8.0 | 0.00 | 0.00 | 0.00 | 17 | 1036.0 |
| 20260507194505 | 77 | 1 | 2.0 | 10.0 | 0.00 | 0.00 | 0.00 | 13 | 1036.2 |
| 20260507193005 | 75 | 103 | 3.0 | 8.0 | 0.00 | 0.00 | 0.00 | 18 | 1036.4 |
| 20260507191505 | 75 | 87 | 3.0 | 8.0 | 0.00 | 0.00 | 0.00 | 17 | 1036.7 |
| 20260507190006 | 75 | 26 | 3.0 | 9.0 | 0.00 | 0.00 | 0.00 | 17 | 1036.9 |
| 20260507184527 | 74 | 37 | 4.0 | 9.0 | 0.00 | 0.00 | 0.00 | 18 | 1037.0 |
| 20260507183027 | 73 | 101 | 3.0 | 8.0 | 0.00 | 0.00 | 0.00 | 20 | 1037.0 |
| 20260507181504 | 73 | 74 | 2.0 | 7.0 | 0.00 | 0.00 | 0.00 | 21 | 1037.2 |
| 20260507180006 | 73 | 80 | 4.0 | 9.0 | 0.00 | 0.00 | 0.00 | 20 | 1037.4 |
| 20260507174504 | 74 | 36 | 1.0 | 5.0 | 0.00 | 0.00 | 0.00 | 20 | 1037.5 |
| 20260507173005 | 72 | 16 | 2.0 | 6.0 | 0.00 | 0.00 | 0.00 | 22 | 1037.6 |
| 20260507171504 | 72 | 23 | 2.0 | 6.0 | 0.00 | 0.00 | 0.00 | 22 | 1037.6 |
| 20260507170005 | 70 | 33 | 3.0 | 7.0 | 0.00 | 0.00 | 0.00 | 23 | 1037.7 |
| 20260507164505 | 68 | 97 | 3.0 | 6.0 | 0.00 | 0.00 | 0.00 | 24 | 1037.8 |
| 20260507163004 | 68 | 98 | 2.0 | 6.0 | 0.00 | 0.00 | 0.00 | 24 | 1038.0 |
| 20260507161504 | 66 | 59 | 2.0 | 6.0 | 0.00 | 0.00 | 0.00 | 24 | 1038.0 |
| 20260507160005 | 66 | 92 | 2.0 | 4.0 | 0.00 | 0.00 | 0.00 | 25 | 1038.1 |
| 20260507154504 | 65 | 109 | 2.0 | 4.0 | 0.00 | 0.00 | 0.00 | 26 | 1038.3 |
| 20260507153026 | 64 | 101 | 2.0 | 5.0 | 0.00 | 0.00 | 0.00 | 27 | 1038.3 |
| 20260507151504 | 64 | 124 | 1.0 | 3.0 | 0.00 | 0.00 | 0.00 | 31 | 1038.3 |
| 20260507150005 | 63 | 66 | 1.0 | 2.0 | 0.00 | 0.00 | 0.00 | 35 | 1038.5 |
| 20260507144504 | 63 | 120 | 0.0 | 1.0 | 0.00 | 0.00 | 0.00 | 34 | 1038.6 |
| 20260507143004 | 59 | 210 | 0.0 | 1.0 | 0.00 | 0.00 | 0.00 | 44 | 1038.6 |
| 20260507141525 | 56 | 210 | 0.0 | 1.0 | 0.00 | 0.00 | 0.00 | 46 | 1038.5 |
| 20260507140006 | 53 | 210 | 0.0 | 1.0 | 0.00 | 0.00 | 0.00 | 49 | 1038.5 |
| 20260507134504 | 49 | 259 | 0.0 | 1.0 | 0.00 | 0.00 | 0.00 | 54 | 1038.4 |
| 20260507133004 | 47 | 273 | 0.0 | 2.0 | 0.00 | 0.00 | 0.00 | 56 | 1038.1 |
| 20260507131504 | 45 | 271 | 0.0 | 2.0 | 0.00 | 0.00 | 0.00 | 59 | 1038.0 |
| 20260507130025 | 43 | 289 | 0.0 | 1.0 | 0.00 | 0.00 | 0.00 | 62 | 1037.9 |
| 20260507124504 | 42 | 234 | 0.0 | 1.0 | 0.00 | 0.00 | 0.00 | 63 | 1037.9 |
| 20260507123025 | 42 | 251 | 0.0 | 1.0 | 0.00 | 0.00 | 0.00 | 64 | 1037.8 |
| 20260507121504 | 42 | 244 | 0.0 | 1.0 | 0.00 | 0.00 | 0.00 | 63 | 1037.9 |
| 20260507120025 | 43 | 251 | 0.0 | 1.0 | 0.00 | 0.00 | 0.00 | 61 | 1037.9 |
| 20260507114504 | 43 | 277 | 0.0 | 1.0 | 0.00 | 0.00 | 0.00 | 62 | 1037.9 |
| 20260507113005 | 44 | 262 | 0.0 | 1.0 | 0.00 | 0.00 | 0.00 | 62 | 1038.0 |
| 20260507111506 | 44 | 282 | 0.0 | 1.0 | 0.00 | 0.00 | 0.00 | 61 | 1038.0 |
| 20260507110004 | 44 | 274 | 0.0 | 1.0 | 0.00 | 0.00 | 0.00 | 60 | 1038.0 |
| 20260507104504 | 45 | 250 | 0.0 | 1.0 | 0.00 | 0.00 | 0.00 | 60 | 1038.0 |
| 20260507103004 | 45 | 280 | 0.0 | 1.0 | 0.00 | 0.00 | 0.00 | 60 | 1038.0 |
| 20260507101504 | 45 | 260 | 0.0 | 1.0 | 0.00 | 0.00 | 0.00 | 59 | 1037.8 |
| 20260507100004 | 46 | 275 | 0.0 | 1.0 | 0.00 | 0.00 | 0.00 | 58 | 1037.8 |
| 20260507094504 | 46 | 274 | 0.0 | 2.0 | 0.00 | 0.00 | 0.00 | 58 | 1037.8 |
| 20260507093025 | 46 | 253 | 0.0 | 1.0 | 0.00 | 0.00 | 0.00 | 58 | 1037.8 |
| 20260507091503 | 46 | 278 | 0.0 | 1.0 | 0.00 | 0.00 | 0.00 | 58 | 1037.8 |
| 20260507090005 | 47 | 0 | 0.0 | 0.0 | 0.00 | 0.00 | 0.00 | 57 | 1037.8 |
| 20260507084504 | 48 | 255 | 0.0 | 1.0 | 0.00 | 0.00 | 0.00 | 56 | 1037.8 |
| 20260507083025 | 50 | 248 | 0.0 | 1.0 | 0.00 | 0.00 | 0.00 | 52 | 1037.9 |
| 20260507081504 | 51 | 0 | 0.0 | 0.0 | 0.00 | 0.00 | 0.00 | 50 | 1037.8 |